Home   Weather   Charlottesville   Past weeks

Flag for USA Past Weather in Charlottesville, Virginia, USA — Yesterday and Last 2 Weeks

Now
58 °F

Sunny.


Feels Like: 58 °F
Forecast: 42 / 60 °F
Wind: No wind

Location: Charlottesville-Albemarle Airport

Current Time: Jan 18, 2017 at 5:19:24 pm

Latest Report: Jan 18, 2017 at 4:53 pm


Visibility: 10 mi

Pressure: 29.98 "Hg

Humidity: 41%

Dew Point: 34 °F

Location of CharlottesvilleLocation

Past Weather in Charlottesville — Graph

°F

Charlottesville Temperature Yesterday

Maximum temperature yesterday: 55 °F (at 8:53 pm)
Minimum temperature yesterday: 42 °F (at 12:31 am)
Average temperature yesterday: 48 °F

High & Low Weather Summary for the Past Weeks

 TemperatureHumidityPressure
High71 °F (Jan 12, 1:53 pm)100% (Jan 15, 3:53 am)30.78 "Hg (Jan 15, 3:53 am)
Low8 °F (Jan 9, 6:53 am)22% (Jan 4, 7:53 pm)29.53 "Hg (Jan 4, 12:53 am)
Average39 °F70%30.23 "Hg
* Reported Jan 3 3:53 pm — Jan 18 3:53 pm, Charlottesville, Weather by CustomWeather, © 2017

Note: Actual official high and low records may vary slightly from our data, if they occured in-between our weather recording intervals... More about our weather records

Advertising

Charlottesville Weather History for the Previous 24 Hours

Scroll right to see more
 ConditionsComfort  
Time TempWeatherWind HumidityBarometerVisibility
3:53 pm
Wed, Jan 18
60 °FSunny.9 mph38%29.97 "Hg10 mi
2:53 pm60 °FSunny.9 mph38%29.95 "Hg10 mi
1:53 pm60 °FPassing clouds.12 mph38%29.94 "Hg10 mi
12:53 pm61 °FPassing clouds.14 mph39%29.95 "Hg10 mi
11:53 am61 °FScattered clouds.9 mph39%29.96 "Hg10 mi
10:53 am59 °FSunny.10 mph48%29.98 "Hg10 mi
9:53 am59 °FScattered clouds.10 mph62%29.96 "Hg10 mi
8:53 am57 °FPartly sunny.3 mph81%29.94 "Hg10 mi
7:53 am53 °FPartly sunny.3 mph83%29.90 "Hg10 mi
6:53 am56 °FPassing clouds.3 mph70%29.89 "Hg10 mi
5:53 am55 °FClear.3 mph72%29.87 "Hg10 mi
4:53 am62 °FClear.5 mph58%29.84 "Hg10 mi
3:53 am54 °FClear.No wind86%29.83 "Hg10 mi
3:26 am54 °FFog.5 mph93%29.84 "Hg3 mi
3:21 am52 °FFog.5 mph93%29.85 "Hg1 mi
2:58 am53 °FFog.No wind93%29.85 "Hg3 mi
1:53 am55 °FClear.7 mph93%29.86 "Hg9 mi
12:53 am54 °FClear.6 mph93%29.86 "Hg10 mi
11:53 pm
Tue, Jan 17
55 °FPassing clouds.6 mph90%29.89 "Hg10 mi
10:53 pm54 °FPassing clouds.3 mph93%29.91 "Hg10 mi
9:53 pm55 °FPassing clouds.8 mph90%29.92 "Hg10 mi
8:53 pm55 °FMostly cloudy.5 mph87%29.95 "Hg10 mi
7:53 pm54 °FPassing clouds.9 mph90%29.96 "Hg9 mi
6:53 pm53 °FFog.8 mph89%29.97 "Hg6 mi
6:00 pm54 °FPartly cloudy.10 mph90%29.98 "Hg9 mi
Weather by CustomWeather, © 2017

See weather overviewHow to use our weather pages